Roseburg, OR

10:37 PM PST on December 06, 2019 (GMT -0800)
Roseburg Regional

Weather History for KRBG - July, 2019

Change the Weather History Date:

Sunday, July 14, 2019

  Actual Average Record
Temperature  
Mean Temperature 75 °F 70 °F  
Max Temperature 90 °F 84 °F 104 °F (1938)
Min Temperature 60 °F 56 °F 46 °F (1958)
Degree Days  
Heating Degree Days 0 0  
Month to date heating degree days 2 8  
Since 1 June heating degree days 37 91  
Since 1 July heating degree days 2 8  
Cooling Degree Days 10 6  
Month to date cooling degree days 72 65  
Year to date cooling degree days 223 135  
Since 1 June cooling degree days 194 115  
Growing Degree Days 25 (Base 50)    
Moisture  
Dew Point 53 °F    
Average Humidity 52    
Maximum Humidity 78    
Minimum Humidity 26    
Precipitation  
Precipitation 0.00 in 0.01 in 0.03 in (1964)
Month to date precipitation T 0.23  
Year to date precipitation 21.67 18.99  
Sea Level Pressure  
Sea Level Pressure 30.03 in    
Wind  
Wind Speed 3 mph (NW)    
Max Wind Speed 13 mph    
Max Gust Speed 20 mph    
Visibility 10 miles    
Events      
T = Trace of Precipitation, MM = Missing Value Source: NWS Daily Summary

Daily Weather History Graph

Daily Weather History Graph

Search for Another Location

Airport or City:

Astronomy

Jul. 14, 2019 Rise Set
Actual Time 5:46 AM PDT 8:52 PM PDT
Civil Twilight 5:11 AM PDT 9:26 PM PDT
Nautical Twilight 4:27 AM PDT 10:10 PM PDT
Astronomical Twilight 3:34 AM PDT 11:02 PM PDT
Moon 7:20 PM PDT (7/14) 3:51 AM PDT (7/14)
Length of Visible Light 16h 14m
Length of Day
15h 05m
Waxing Gibbous, 96% of the Moon is Illuminated
Jul 14
Waxing Gibbous
Jul 16
Full
Jul 24
Last Quarter
Jul 31
New
Aug 7
First Quarter

Hourly Weather History & Observations

Time (PDT) Temp. Heat Index Dew Point Humidity Pressure Visibility Wind Dir Wind Speed Gust Speed Precip Events Conditions
12:53 AM 66.9 °F - 54.0 °F 63% 30.01 in 10.0 mi North 3.5 mph - N/A   Clear
1:53 AM 64.9 °F - 54.0 °F 68% 30.02 in 10.0 mi Calm Calm - N/A   Clear
2:53 AM 64.0 °F - 54.0 °F 70% 30.02 in 10.0 mi Calm Calm - N/A   Clear
3:53 AM 63.0 °F - 54.0 °F 72% 30.03 in 10.0 mi Calm Calm - N/A   Clear
4:53 AM 63.0 °F - 54.0 °F 72% 30.04 in 10.0 mi Calm Calm - N/A   Clear
5:53 AM 61.0 °F - 54.0 °F 78% 30.05 in 10.0 mi Calm Calm - N/A   Clear
6:53 AM 62.1 °F - 54.0 °F 75% 30.06 in 10.0 mi Calm Calm - N/A   Clear
7:53 AM 64.0 °F - 55.0 °F 73% 30.06 in 10.0 mi Calm Calm - N/A   Clear
8:53 AM 66.9 °F - 54.0 °F 63% 30.07 in 10.0 mi Calm Calm - N/A   Clear
9:53 AM 71.1 °F - 55.0 °F 57% 30.06 in 10.0 mi Calm Calm - N/A   Clear
10:53 AM 73.9 °F - 55.0 °F 52% 30.05 in 10.0 mi Calm Calm - N/A   Clear
11:53 AM 79.0 °F - 55.9 °F 45% 30.04 in 10.0 mi Calm Calm - N/A   Clear
12:53 PM 82.0 °F 81.3 °F 54.0 °F 38% 30.03 in 10.0 mi NNE 9.2 mph - N/A   Clear
1:53 PM 86.0 °F - 50.0 °F 29% 30.01 in 10.0 mi North 8.1 mph - N/A   Clear
2:53 PM 87.1 °F - 48.0 °F 26% 30.00 in 10.0 mi Variable 3.5 mph - N/A   Clear
3:53 PM 89.1 °F - 50.0 °F 26% 29.99 in 10.0 mi Variable 6.9 mph - N/A   Clear
4:53 PM 88.0 °F - 52.0 °F 29% 29.98 in 10.0 mi NNW 8.1 mph - N/A   Clear
5:53 PM 86.0 °F 84.7 °F 55.9 °F 36% 29.98 in 10.0 mi WNW 8.1 mph 16.1 mph N/A   Partly Cloudy
6:53 PM 82.9 °F 81.9 °F 54.0 °F 37% 30.00 in 10.0 mi WNW 8.1 mph - N/A   Partly Cloudy
7:53 PM 80.1 °F - 51.1 °F 36% 30.02 in 10.0 mi WNW 6.9 mph - N/A   Partly Cloudy
8:53 PM 75.9 °F - 51.1 °F 42% 30.04 in 10.0 mi Variable 5.8 mph - N/A   Partly Cloudy
9:53 PM 73.0 °F - 52.0 °F 48% 30.08 in 10.0 mi WSW 5.8 mph - N/A   Partly Cloudy
10:53 PM 70.0 °F - 51.1 °F 51% 30.09 in 10.0 mi SW 3.5 mph - N/A   Clear
11:53 PM 70.0 °F - 48.9 °F 47% 30.11 in 10.0 mi Calm Calm - N/A   Partly Cloudy